TimeEDT,TemperatureF,Dew PointF,Humidity,Sea Level PressureIn,VisibilityMPH,Wind Direction,Wind SpeedMPH,Gust SpeedMPH,PrecipitationIn,Events,Conditions,WindDirDegrees,DateUTC
12:54 AM,64.9,62.1,90,29.81,10.0,NW,4.6,-,0.01,Rain,Light Rain,320,2012-09-09 04:54:00
1:54 AM,64.9,63.0,93,29.81,10.0,NW,3.5,-,0.00,,Overcast,310,2012-09-09 05:54:00
2:54 AM,64.9,63.0,93,29.80,10.0,North,-9999.0,-,0.00,,Clear,0,2012-09-09 06:54:00
3:54 AM,64.9,62.1,90,29.81,10.0,Calm,Calm,-,0.01,,Clear,0,2012-09-09 07:54:00
4:54 AM,64.9,62.1,90,29.82,10.0,Calm,Calm,-,0.00,,Partly Cloudy,0,2012-09-09 08:54:00
5:54 AM,64.0,62.1,93,29.83,10.0,Calm,Calm,-,N/A,,Partly Cloudy,0,2012-09-09 09:54:00
6:54 AM,64.0,61.0,90,29.84,10.0,NW,4.6,-,N/A,,Scattered Clouds,320,2012-09-09 10:54:00
7:54 AM,63.0,60.1,90,29.86,10.0,NNW,4.6,-,N/A,,Clear,340,2012-09-09 11:54:00
8:54 AM,66.0,61.0,84,29.87,10.0,NNW,9.2,-,N/A,,Clear,330,2012-09-09 12:54:00
9:54 AM,69.1,60.1,73,29.88,10.0,North,8.1,-,N/A,,Clear,360,2012-09-09 13:54:00
10:54 AM,73.0,61.0,66,29.88,10.0,Calm,Calm,-,N/A,,Clear,0,2012-09-09 14:54:00
11:54 AM,72.0,59.0,64,29.87,10.0,North,4.6,-,N/A,,Scattered Clouds,350,2012-09-09 15:54:00
12:54 PM,75.9,59.0,56,29.86,10.0,NNW,5.8,-,N/A,,Scattered Clouds,330,2012-09-09 16:54:00
1:54 PM,75.9,57.0,52,29.84,10.0,NW,10.4,-,N/A,,Partly Cloudy,310,2012-09-09 17:54:00
2:54 PM,77.0,55.0,47,29.83,10.0,WNW,9.2,-,N/A,,Scattered Clouds,300,2012-09-09 18:54:00
3:54 PM,78.1,51.1,39,29.82,10.0,NNW,9.2,-,N/A,,Overcast,340,2012-09-09 19:54:00
4:54 PM,78.1,59.0,52,29.83,10.0,Calm,Calm,-,N/A,,Mostly Cloudy,0,2012-09-09 20:54:00
5:54 PM,73.0,59.0,61,29.84,10.0,East,5.8,-,N/A,,Clear,100,2012-09-09 21:54:00
6:54 PM,70.0,60.1,71,29.85,10.0,ESE,4.6,-,N/A,,Partly Cloudy,120,2012-09-09 22:54:00
7:54 PM,70.0,59.0,68,29.86,10.0,SSW,3.5,-,N/A,,Mostly Cloudy,200,2012-09-09 23:54:00
8:54 PM,66.9,60.1,79,29.88,10.0,SW,3.5,-,N/A,,Scattered Clouds,230,2012-09-10 00:54:00
9:54 PM,68.0,59.0,73,29.88,10.0,SW,4.6,-,N/A,,Scattered Clouds,230,2012-09-10 01:54:00
10:54 PM,66.0,55.9,70,29.89,10.0,West,4.6,-,N/A,,Overcast,280,2012-09-10 02:54:00
11:54 PM,63.0,55.9,78,29.90,10.0,NW,6.9,-,N/A,,Clear,310,2012-09-10 03:54:00